This is the latest recevied weather packets stored in our database for station/object SP1BMW-13. If no packets are shown the sender has not sent any weather packets the latest 1 day(s).
| Time | Temp. | Humidity | Pressure | Rain* | Wind** | Luminosity | Snow |
|---|---|---|---|---|---|---|---|
| 1777967746 | 11.11° C | 96% | 1010.2 hPa | 5.59 mm | 0.45 m/s, 134° | 71 W/m² | - |
| 1777967687 | 11.11° C | 96% | 1010.1 hPa | 5.84 mm | 0 m/s | 80 W/m² | - |
| 1777967626 | 11.11° C | 96% | 1009.9 hPa | 5.84 mm | 0 m/s | 79 W/m² | - |
| 1777967567 | 11.11° C | 96% | 1010.1 hPa | 5.84 mm | 0 m/s | 76 W/m² | - |
| 1777967506 | 11.11° C | 96% | 1009.9 hPa | 5.59 mm | 0 m/s | 75 W/m² | - |
| 1777967447 | 11.11° C | 96% | 1010 hPa | 5.59 mm | 0.45 m/s, 47° | 74 W/m² | - |
| 1777967387 | 11.11° C | 96% | 1010.1 hPa | 6.1 mm | 0.45 m/s, 36° | 71 W/m² | - |
| 1777967326 | 11.11° C | 96% | 1010 hPa | 5.84 mm | 0.45 m/s, 46° | 64 W/m² | - |
| 1777967266 | 11.11° C | 96% | 1010 hPa | 5.84 mm | 0 m/s | 60 W/m² | - |
| 1777967207 | 11.11° C | 96% | 1010.2 hPa | 5.84 mm | 0 m/s | 60 W/m² | - |
| 1777967146 | 11.11° C | 96% | 1010.2 hPa | 5.84 mm | 0 m/s | 59 W/m² | - |
| 1777967086 | 11.11° C | 96% | 1010.1 hPa | 5.84 mm | 0 m/s | 55 W/m² | - |
| 1777967027 | 11.11° C | 96% | 1010.2 hPa | 5.84 mm | 0 m/s | 56 W/m² | - |
| 1777966966 | 11.11° C | 96% | 1010.3 hPa | 5.59 mm | 0 m/s | 53 W/m² | - |
| 1777966907 | 11.11° C | 96% | 1010.2 hPa | 5.59 mm | 0.45 m/s, 134° | 53 W/m² | - |
| 1777966846 | 11.11° C | 96% | 1010.4 hPa | 5.33 mm | 0.45 m/s, 130° | 60 W/m² | - |
| 1777966787 | 11.11° C | 96% | 1010.1 hPa | 5.84 mm | 0 m/s | 62 W/m² | - |
| 1777966726 | 11.11° C | 96% | 1010.1 hPa | 5.84 mm | 0 m/s | 63 W/m² | - |
| 1777966666 | 11.11° C | 96% | 1010 hPa | 5.59 mm | 0 m/s | 66 W/m² | - |
| 1777966606 | 11.11° C | 96% | 1009.8 hPa | 5.59 mm | 0 m/s | 65 W/m² | - |
| 1777966547 | 11.11° C | 96% | 1009.8 hPa | 5.33 mm | 0.45 m/s, 22° | 66 W/m² | - |
| 1777966486 | 11.11° C | 96% | 1010 hPa | 5.59 mm | 0.45 m/s, 42° | 67 W/m² | - |
| 1777966426 | 11.11° C | 96% | 1009.9 hPa | 5.59 mm | 0 m/s | 65 W/m² | - |
| 1777966366 | 11.11° C | 96% | 1010 hPa | 5.33 mm | 0 m/s | 62 W/m² | - |
| 1777966306 | 11.11° C | 96% | 1009.9 hPa | 5.33 mm | 0.45 m/s, 45° | 62 W/m² | - |
* Rain latest hour (hover to see other rain measurements)
** Current wind speed in m/s (hover to see current wind gust speed)